Regional Weather Roundup
Issued by NWS

Home | Current Version | Previous Version | Graphics & Text | Print | Product List | Glossary Off
Versions: 1 2 3 4 5 6 7 8 9 10 11 12 13 14 15 16 17 18 19 20 21 22 23 24 25 26 27 28 29 30 31 32 33 34 35 36 37 38 39 40 41 42 43 44 45 46 47 48 49 50

000
ASUS43 KMPX 221401
RWRMN
WEATHER ROUNDUP FOR MINNESOTA
NATIONAL WEATHER SERVICE TWIN CITIES/CHANHASSEN MN
900 AM CDT WED OCT 22 2014


NOTE: "FAIR" INDICATES FEW OR NO CLOUDS BELOW 12,000 FEET WITH NO
SIGNIFICANT WEATHER AND/OR OBSTRUCTIONS TO VISIBILITY. N/A MEANS
CURRENT SKY AND/OR WEATHER CONDITIONS ARE NOT AVAILABLE.

MNZ060>063-068>070-221500-
   Twin Cities Metro

CITY           SKY/WX    TMP DP  RH WIND       PRES   REMARKS
TWIN CITIES    MOSUNNY   42  36  79 SE14      30.20S
ST PAUL        SUNNY     42  37  82 SE17G23   30.22S
CRYSTAL        SUNNY     44  37  76 SE13      30.18R
BLAINE         MOSUNNY   45  39  81 MISG        N/A
LAKEVILLE      SUNNY     43  37  81 SE9       30.20R
EDEN PRAIRIE   MOSUNNY   44  38  79 SE17      30.17S
SOUTH ST PAUL  SUNNY     42  36  79 SE8       30.22R
LAKE ELMO      FAIR      43  37  81 S12G18    30.22S
$$
MNZ001>005-007-008-013>017-022>024-027-028-221500-
   Northwest Minnesota

CITY           SKY/WX    TMP DP  RH WIND       PRES   REMARKS
BEMIDJI        SUNNY     46  38  75 SE17      29.98S
HALLOCK        MOCLDY    55  43  62 S26G32    29.79S
ROSEAU         PTCLDY    54  43  66 SE15G22   29.86F
WARROAD        MOCLDY    52  43  71 SE13G20   29.89F
THIEF RVR FALL MOCLDY    54  39  58 SE17G24   29.86S
CROOKSTON      MOCLDY    54  43  66 S24G35    29.84S
FOSSTON        PTCLDY    52  39  62 SE20G28   29.90S
DETROIT LAKES  FAIR      50  41  71 S21G28    29.94S
MOORHEAD       CLEAR     54  45  71 SE21G28   29.88S
PARK RAPIDS    MOSUNNY   45  38  76 SE20G28   30.01S
MAHNOMEN       FAIR      51  40  66 SE14G24   29.90F
$$
MNZ006-009>011-018-025>026-221500-
   North Central Minnesota

CITY           SKY/WX    TMP DP  RH WIND       PRES   REMARKS
BAUDETTE       MOCLDY    46  39  76 SE12G23   29.96S
FLAG ISLAND    MOCLDY    46  41  81 S29       29.90F
INTL FALLS     SUNNY     44  37  76 S9        30.04S
WASKISH        MOSUNNY   46  39  76 SE12G25   29.96S
BIG FORK       SUNNY     43  37  81 SE12G22   30.06F
LONGVILLE      SUNNY     45  37  76 SE12G18   30.05F
GRAND RAPIDS   SUNNY     39  36  87 SE15G21   30.10S
CRANE LAKE     SUNNY     43  36  75 S8        30.12F
ORR            SUNNY     43  34  70 SE13G18   30.08F
COOK           SUNNY     43  36  75 SE12G17   30.13S
WALKER         PTSUNNY   44  37  77 S14       30.02F
$$
MNZ012-019>021-037-221500-
   Northeast Minnesota

CITY           SKY/WX    TMP DP  RH WIND       PRES   REMARKS
DULUTH         SUNNY     42  34  73 S12       30.19S
ELY            SUNNY     41  36  81 S8G18     30.17F
HIBBING        SUNNY     40  35  83 SE10      30.15S
EVELETH        SUNNY     39  36  87 SE8       30.17S
DULUTH HARBOR  SUNNY     43  37  81 CALM      30.23S
TWO HARBORS    SUNNY     45  28  53 S7        30.21S
SILVER BAY     SUNNY     37  36  93 CALM      30.21F
GRAND MARAIS     N/A     46  42  86 S9        30.27S
G MARAIS ARPRT CLOUDY    37  36  93 S6        30.24F
$$
MNZ029>031-032-039>041-046>048-054>057-064-221500-
   West Central Minnesota

CITY           SKY/WX    TMP DP  RH WIND       PRES   REMARKS
FERGUS FALLS   SUNNY     52  37  58 S22G30    29.95S
WHEATON        SUNNY     48  41  76 SE20G29   29.93R
MORRIS         SUNNY     48  39  71 SE24      29.95F
ALEXANDRIA     MOSUNNY   47  40  76 SE20G29   30.02F
ELBOW LAKE     FAIR      49  40  71 SE22G33   29.95R
WADENA         MOSUNNY   45  37  76 SE10G22   30.01R
GLENWOOD       MOSUNNY   46  41  81 SE16      30.02S
APPLETON       MOSUNNY   52  39  62 SE16G22   29.97S
BENSON         SUNNY     46  39  76 S18       29.99F
ORTONVILLE     SUNNY     50  41  71 SE17G24   29.93S
MADISON        SUNNY     55  45  67 S15       29.96R
WILLMAR        FAIR      48  39  71 SE21G26   30.05F
$$
MNZ033>034-036-042>043-049>051-058-059-221500-
   Central Minnesota

CITY           SKY/WX    TMP DP  RH WIND       PRES   REMARKS
ST CLOUD       MOSUNNY   45  37  73 SE15      30.12F
SAUK CENTRE    CLOUDY    45  38  77 SE15      30.06S
PAYNESVILLE    PTSUNNY   44  37  77 E16G22    30.07F
AITKIN         SUNNY     46  39  76 SE14G22   30.10F
PINE RIVER     SUNNY     45  37  76 SE15G22   30.08F
BRAINERD       SUNNY     43  37  79 SE13      30.09F
STAPLES        SUNNY     43  37  81 SE14G24   30.03F
LONG PRAIRIE   CLOUDY    43  37  81 SE15      30.05F
LITTLE FALLS   MOSUNNY   43  36  75 SE12G17   30.09F
LITCHFIELD     LGT RAIN  46  41  81 SE13G21   30.10S
BUFFALO        PTSUNNY   45  37  74 SE9G21    30.15F
MAPLE LAKE     PTSUNNY   45  40  82 SE9       30.14F
$$
MNZ037-044-045-052-053-221500-
   East Central Minnesota

CITY           SKY/WX    TMP DP  RH WIND       PRES   REMARKS
PRINCETON      SUNNY     45  37  76 SE9       30.16S
MORA           SUNNY     39  34  81 SE8       30.19S
CAMBRIDGE      SUNNY     45  36  70 SE10      30.16S
RUSH CITY      SUNNY     41  37  83 SE12G17   30.20R
MOOSE LAKE     SUNNY     43  36  75 S8        30.16F
HINCKLEY       FAIR      41  37  87 SE8       30.19S
CLOQUET        SUNNY     39  36  87 SE6       30.18F
MCGREGOR       SUNNY     41  36  81 S12G18    30.15R
$$
MNZ071>073-080-081-089-090-097-098-221500-
   Southwest Minnesota

CITY           SKY/WX    TMP DP  RH WIND       PRES   REMARKS
MONTEVIDEO     SUNNY     50  39  66 S14G23    29.99F
GRANITE FALLS  SUNNY     49  40  72 SE17G24   30.03S
CANBY          PTSUNNY   56  44  63 S13G24    29.97R
MARSHALL       MOSUNNY   54  39  58 S18       29.99S
REDWOOD FALLS  SUNNY     48  39  71 SE18      30.05F
OLIVIA         SUNNY     46  39  76 SE17G24   30.05S
PIPESTONE      SUNNY     52  43  71 S21G30    29.99F
WINDOM         SUNNY     48  39  71 SE14G23   30.08S
WORTHINGTON    SUNNY     48  39  71 S16G24    30.06F
JACKSON        SUNNY     46  37  71 SE16G22   30.10S
TRACY          SUNNY     51  41  70 S22G30    30.01S
SLAYTON        MOSUNNY   49  41  72 SE24      30.04S
$$
MNZ065>067-074>077-082>085-091>093-221500-
   South Central Minnesota

CITY           SKY/WX    TMP DP  RH WIND       PRES   REMARKS
MANKATO        PTSUNNY   45  36  70 SE20G26   30.14F
NEW ULM        PTSUNNY   46  39  76 S16       30.11S
ST JAMES       MOSUNNY   46  39  76 SE15G23   30.12S
FAIRMONT       PTSUNNY   45  36  70 SE22      30.13F
GLENCOE        PTSUNNY   47  40  78 SE15G22   30.12F
FARIBAULT      FAIR      45  37  76 SE13      30.20R
OWATONNA       SUNNY     43  37  81 SE17G25   30.19S
WASECA         PTSUNNY   41  34  75 SE15G22   30.19F
ALBERT LEA     MOSUNNY   43  39  87 S18G24    30.20S
$$
MNZ078>079-086>088-094>096-221500-
   Southeast Minnesota

CITY           SKY/WX    TMP DP  RH WIND       PRES   REMARKS
ROCHESTER      SUNNY     41  36  82 S16G22    30.25S
RED WING       SUNNY     45  36  70 SE13      30.24S
STANTON        SUNNY     44  37  76 S10G21    30.19F
DODGE CENTER   SUNNY     43  37  81 S15       30.22S
WINONA         SUNNY     41  37  87 SE6       30.30S
AUSTIN         SUNNY     39  37  93 S12       30.23S
PRESTON        SUNNY     38  35  87 S10       30.28R
$$
ABBREVIATIONS USED IN REMARKS
   TC - TEMPERATURES IN CELSIUS
  WCI - WIND CHILL INDEX
   HX - HEAT INDEX
  VSB - VISIBILITY
$$



USA.gov is the U.S. government's official web portal to all federal, state and local government web resources and services.